Regional Weather Roundup
Issued by NWS

Home | Current Version | Previous Version | Text Only | Print | Product List | Glossary Off
Versions: 1 2 3 4 5 6 7 8 9 10 11 12 13 14 15 16 17 18 19 20 21 22 23 24 25 26 27 28 29 30 31 32 33 34 35 36 37 38 39 40 41 42 43 44 45 46 47 48 49 50

000
ASUS43 KDTX 272101
RWRMI
MICHIGAN HOURLY REGIONAL WEATHER ROUNDUP
NATIONAL WEATHER SERVICE DETROIT/PONTIAC MI
500 PM EDT SAT AUG 27 2016

NOTE: "FAIR" INDICATES FEW OR NO CLOUDS BELOW 12,000 FEET WITH NO
SIGNIFICANT WEATHER AND/OR OBSTRUCTION TO VISIBILITY.

MIZ047>049-052>055-059>063-066>070-074>076-081>083-272200-
SOUTHEAST LOWER MICHIGAN

CITY           SKY/WX    TMP DP  RH WIND       PRES   REMARKS
ADRIAN         CLOUDY    74  72  93 SE7       30.09F
ALMA           CLOUDY    73  71  91 SE7       30.08S
ANN ARBOR      CLOUDY    73  72  96 E9        30.09F
CARO           RAIN      71  70  96 E8        30.07F
DETROIT CITY   RAIN      71  71 100 SE9       30.12F FOG
DETROIT        LGT RAIN  72  71  97 E8        30.10F
FLINT          CLOUDY    76  70  82 SE14      30.08F
GROSSE ILE     LGT RAIN  71  69  95 E6        30.10F
HILLSDALE      CLOUDY    76  70  83 SE7       30.08F
HOWELL         PTSUNNY   73  71  92 SE9       30.09F

CITY           SKY/WX    TMP DP  RH WIND       PRES   REMARKS
JACKSON        CLOUDY    75  72  90 SE9       30.08F
LAMBERTVILLE   CLOUDY    74  71  90 E6        30.10S
LANSING        CLOUDY    76  70  82 S10       30.07S
LAPEER         CLOUDY    70  68  93 S9        30.10F
MASON          CLOUDY    75  70  83 S10       30.08S
MONROE         CLOUDY    73  73  99 E12       30.09F
MT. CLEMENS    LGT RAIN  71  70  98 SE8       30.11S FOG
PONTIAC        DRIZZLE   71  69  93 SE14      30.10F
PORT HURON     HVY RAIN  70  70 100 SE6       30.14F
TRI CITIES     CLOUDY    75  71  87 E10       30.08F
MIDLAND        CLOUDY    74  68  82 E9        30.08S
TROY           LGT RAIN  72  69  93 CALM      30.14S
SAGINAW HB     PTSUNNY   73  70  88 SE9       30.06F
$$
MIZ043>046-050>051-056>058-064>065-071>073-077>080-272200-
SOUTHWEST LOWER MICHIGAN

CITY           SKY/WX    TMP DP  RH WIND       PRES   REMARKS
BATTLE CREEK   PTSUNNY   78  72  81 S8        30.06F
BENTON HARBOR  PTSUNNY   82  70  66 SW7       30.03F
BIG RAPIDS     CLOUDY    75  67  77 S6        30.06F
COLDWATER      CLOUDY    79  72  79 S3        30.07F
FREMONT        CLOUDY    75  69  79 S5        30.04S
HOLLAND        CLOUDY    82  69  64 SW15      30.05S
GRAND RAPIDS   PTSUNNY   77  68  73 SE5       30.06S
IONIA          CLOUDY    73  67  81 SE6       30.06F
KALAMAZOO      MOSUNNY   80  70  71 S9        30.05F
LUDINGTON      CLOUDY    74  69  86 S6        30.02F
MARSHALL       CLOUDY    77  73  88 S6        30.07S
MOUNT PLEASANT CLOUDY    74  69  83 SE9       30.07S
MUSKEGON       CLOUDY    77  71  82 S9        30.04S
SOUTH HAVEN    PTSUNNY   81  73  76 W7        30.04S
$$
MIZ016>042-272200-
NORTHERN LOWER MICHIGAN

CITY           SKY/WX    TMP DP  RH WIND       PRES   REMARKS
ALPENA         CLOUDY    68  63  84 E5        30.11F
BEAVER ISLAND  DRIZZLE   64  63  96 E6        30.07F
BELLAIRE       CLOUDY    72  64  77 S7        30.05S
CADILLAC       CLOUDY    72  65  80 S10       30.06F
CHARLEVOIX     CLOUDY    70  65  84 SE7       30.07F
FRANKFORT      CLOUDY    73  67  81 S3        30.02F
GAYLORD        CLOUDY    69  62  78 SE9       30.09S
GRAYLING       CLOUDY    70  65  85 SE10      30.10S
HARBOR SPRINGS CLOUDY    67  63  87 E9        30.07S
HOUGHTON LAKE  CLOUDY    69  65  86 SE6       30.10S
OSCODA         CLOUDY    70  66  87 SE6       30.10S
PELLSTON       CLOUDY    66  60  81 SE7       30.08F
ROGERS CITY    CLOUDY    68  62  80 SE8       30.11F
TRAVERSE CITY  CLOUDY    75  66  73 VRB6      30.02F
$$
MIZ007>008-015-272200-
EASTERN UPPER MICHIGAN

CITY           SKY/WX    TMP DP  RH WIND       PRES   REMARKS
KINROSS        LGT RAIN  63  62  97 E7        30.11F
MACKINAC ISLAN CLOUDY    65  65 100 E8        30.08F
NEWBERRY       CLOUDY    63  62  97 NE7       30.09F FOG
S. S. MARIE    LGT RAIN  64  62  93 E6        30.11F
$$
MIZ004>006-011>014-085-272200-
CENTRAL UPPER MICHIGAN

CITY           SKY/WX    TMP DP  RH WIND       PRES   REMARKS
MANISTIQUE     CLOUDY    64  61  91 CALM      30.07F FOG
ESCANABA       CLOUDY    66  61  84 SE8       30.05F
MENOMINEE      CLOUDY   N/A N/A N/A E5        30.05F
SAWYER-GWINN   PTSUNNY   66  57  72 S3        30.07F
$$
MIZ001>003-009>011-084-272200-
WESTERN UPPER MICHIGAN

CITY           SKY/WX    TMP DP  RH WIND       PRES   REMARKS
IRON MOUNTAIN  CLOUDY    67  58  72 E3        30.04F
HOUGHTON       PTSUNNY   66  58  75 E10       30.06F
IRONWOOD       CLOUDY    67  60  78 N3        30.04F
$$

ABBREVIATIONS USED IN REMARKS
   TC - TEMPERATURE IN CELSIUS
  WCI - WIND CHILL INDEX
   HX - HEAT INDEX
  VSB - VISIBILITY





USA.gov is the U.S. government's official web portal to all federal, state and local government web resources and services.